contact:dominique.lefevre@mio.osupytheas.fr, maurice.libes@osupytheas.fr, didier.mallarino@osupytheas.fr
Project:EMSO http://www.emso-fr.org/EMSO-France
Depth: 2436.0 m
Title:EMSO Ligure Ouest : Data MII capteur AQUADOPP
Date,Latitude,Longitude,X_East,Y_North,Z_Up,Amplitude_X,Amplitude_Y,Amplitude_Z,Batterie,SoundSpeed,Heading,Pitch,Roll,Pressure,TIS,Speed,Direction
, degrees North, degrees East, m.s-1, m.s-1,m.s-1, 1, 1, 1, Volt, m.s-1, degree, degree, degree, dbar, degree_C, m.s-1, degree
2022-10-06T00:04:03,42.805,6.029,-0.012,0.007,0.005,100.0,101.0,100.0,13.4,1505.2,331.9,-0.8,1.8,2471.03,13.29,0.013,300.3
2022-10-06T00:07:03,42.805,6.029,-0.025,0.008,0.015,103.0,102.0,100.0,13.3,1505.2,325.3,-0.7,1.8,2471.047,13.29,0.026,287.7
2022-10-06T00:10:03,42.805,6.029,-0.027,0.014,-0.004,101.0,101.0,100.0,13.4,1505.2,321.8,-0.8,1.8,2471.058,13.29,0.03,297.4
2022-10-06T00:13:03,42.805,6.029,-0.027,0.016,-0.01,103.0,101.0,102.0,13.4,1505.2,317.4,-0.8,1.8,2471.052,13.29,0.031,300.7
2022-10-06T00:16:03,42.805,6.029,-0.001,0.008,-0.023,101.0,101.0,101.0,13.3,1505.2,325.9,-0.7,1.8,2471.05,13.29,0.008,352.9
2022-10-06T00:19:03,42.805,6.029,-0.016,0.002,0.003,101.0,100.0,101.0,13.4,1505.2,326.3,-0.8,1.8,2471.033,13.29,0.016,277.1
2022-10-06T00:22:03,42.805,6.029,-0.015,-0.015,-0.019,101.0,101.0,100.0,13.4,1505.2,327.4,-0.8,1.8,2471.057,13.29,0.021,225.0
2022-10-06T00:25:03,42.805,6.029,-0.03,0.016,-0.024,101.0,101.0,100.0,13.4,1505.2,324.6,-0.8,1.8,2471.045,13.29,0.034,298.1
2022-10-06T00:28:03,42.805,6.029,-0.002,-0.002,-0.026,98.0,100.0,101.0,13.3,1505.2,323.5,-0.7,1.8,2471.047,13.29,0.002,225.0
2022-10-06T00:31:03,42.805,6.029,-0.024,-0.013,-0.025,102.0,100.0,100.0,13.4,1505.2,316.6,-0.8,1.8,2471.011,13.29,0.027,241.6
2022-10-06T00:34:03,42.805,6.029,-0.017,-0.004,-0.051,101.0,102.0,100.0,13.3,1505.2,331.8,-0.8,1.8,2471.005,13.29,0.017,256.8
2022-10-06T00:37:03,42.805,6.029,-0.031,0.019,-0.004,101.0,101.0,100.0,13.4,1505.2,324.9,-0.7,1.8,2471.023,13.29,0.036,301.5
2022-10-06T00:40:03,42.805,6.029,-0.025,0.007,-0.009,101.0,101.0,101.0,13.4,1505.2,327.2,-0.8,1.8,2471.018,13.29,0.025,285.6
2022-10-06T00:43:03,42.805,6.029,-0.002,0.014,-0.008,100.0,101.0,101.0,13.3,1505.2,326.3,-0.8,1.8,2471.014,13.29,0.014,351.9
2022-10-06T00:46:03,42.805,6.029,-0.038,0.002,-0.031,100.0,101.0,101.0,13.4,1505.2,318.0,-0.8,1.8,2470.988,13.29,0.038,273.0
2022-10-06T00:49:03,42.805,6.029,-0.023,-0.004,-0.012,102.0,99.0,99.0,13.3,1505.2,327.4,-0.8,1.8,2471.057,13.29,0.023,260.1
2022-10-06T00:52:03,42.805,6.029,-0.014,0.003,-0.021,100.0,101.0,100.0,13.4,1505.2,330.6,-0.7,1.8,2471.015,13.29,0.014,282.1
2022-10-06T00:55:03,42.805,6.029,0.005,-0.002,0.016,102.0,101.0,101.0,13.4,1505.2,323.8,-0.8,1.8,2471.031,13.29,0.005,111.8
2022-10-06T00:58:03,42.805,6.029,0.029,-0.011,-0.006,102.0,102.0,99.0,13.4,1505.2,317.0,-0.8,1.8,2471.062,13.29,0.031,110.8
2022-10-06T01:04:03,42.805,6.029,-0.037,0.006,-0.04,102.0,105.0,102.0,13.4,1505.2,326.4,-0.8,1.8,2471.067,13.29,0.037,279.2
2022-10-06T01:07:03,42.805,6.029,0.013,0.009,-0.036,101.0,103.0,102.0,13.4,1505.2,331.8,-0.8,1.8,2471.108,13.29,0.015,55.3
2022-10-06T01:10:03,42.805,6.029,-0.013,0.012,-0.017,101.0,101.0,100.0,13.4,1505.2,331.8,-0.8,1.8,2471.111,13.29,0.017,312.7
2022-10-06T01:13:03,42.805,6.029,-0.01,0.009,0.003,100.0,100.0,101.0,13.4,1505.2,321.5,-0.8,1.8,2471.014,13.29,0.013,312.0
2022-10-06T01:16:03,42.805,6.029,-0.017,0.011,0.007,102.0,100.0,101.0,13.4,1505.2,326.8,-0.7,1.8,2471.031,13.29,0.02,302.9
2022-10-06T01:19:03,42.805,6.029,-0.002,0.004,-0.018,100.0,102.0,100.0,13.4,1505.2,322.1,-0.8,1.9,2471.06,13.29,0.004,333.4
2022-10-06T01:22:03,42.805,6.029,-0.013,-0.007,-0.019,101.0,101.0,100.0,13.4,1505.2,319.5,-0.8,1.8,2471.044,13.29,0.014,241.7
2022-10-06T01:25:03,42.805,6.029,-0.025,-0.009,-0.02,100.0,101.0,100.0,13.3,1505.2,317.0,-0.7,1.8,2471.045,13.29,0.026,250.2
2022-10-06T01:28:03,42.805,6.029,-0.001,-0.024,-0.006,100.0,100.0,101.0,13.4,1505.2,329.2,-0.7,1.8,2471.049,13.29,0.024,182.4
2022-10-06T01:31:03,42.805,6.029,-0.019,0.004,-0.004,101.0,100.0,101.0,13.4,1505.2,318.5,-0.7,1.8,2471.014,13.29,0.019,281.9
2022-10-06T01:34:03,42.805,6.029,0.005,0.004,-0.018,100.0,100.0,100.0,13.4,1505.2,324.7,-0.8,1.8,2471.038,13.29,0.006,51.3
2022-10-06T01:37:03,42.805,6.029,-0.025,0.005,-0.019,103.0,100.0,99.0,13.4,1505.2,329.4,-0.7,1.8,2471.03,13.29,0.025,281.3
2022-10-06T01:40:03,42.805,6.029,-0.036,0.009,-0.027,100.0,101.0,100.0,13.4,1505.2,328.9,-0.8,1.8,2471.032,13.29,0.037,284.0
2022-10-06T01:43:03,42.805,6.029,0.002,-0.01,-0.006,102.0,100.0,101.0,13.4,1505.2,324.3,-0.8,1.8,2471.048,13.29,0.01,168.7
2022-10-06T01:46:03,42.805,6.029,-0.03,0.021,0.0,101.0,100.0,100.0,13.4,1505.2,325.9,-0.7,1.8,2471.018,13.29,0.036,305.0
2022-10-06T01:49:03,42.805,6.029,-0.003,-0.009,-0.037,102.0,101.0,99.0,13.4,1505.2,325.8,-0.8,1.8,2471.035,13.29,0.009,198.4
2022-10-06T01:52:03,42.805,6.029,-0.002,-0.001,-0.028,105.0,99.0,99.0,13.3,1505.2,321.5,-0.8,1.8,2471.048,13.29,0.002,243.4
2022-10-06T01:55:03,42.805,6.029,-0.034,0.01,0.0,99.0,102.0,100.0,13.4,1505.2,324.7,-0.8,1.8,2471.035,13.29,0.035,286.4
2022-10-06T01:58:03,42.805,6.029,-0.015,0.005,-0.011,100.0,101.0,99.0,13.4,1505.2,327.8,-0.8,1.8,2471.053,13.29,0.015,288.4
2022-10-06T02:04:04,42.805,6.029,-0.019,0.015,0.018,100.0,101.0,100.0,13.4,1505.2,327.6,-0.7,1.8,2471.126,13.29,0.024,308.3
2022-10-06T02:07:03,42.805,6.029,-0.007,0.011,-0.01,100.0,101.0,100.0,13.4,1505.2,325.5,-0.8,1.8,2471.084,13.29,0.013,327.5
2022-10-06T02:10:03,42.805,6.029,-0.036,0.007,-0.011,100.0,103.0,100.0,13.4,1505.2,321.6,-0.8,1.8,2471.098,13.29,0.036,281.0
2022-10-06T02:13:03,42.805,6.029,0.005,-0.015,-0.021,102.0,100.0,99.0,13.4,1505.2,329.9,-0.7,1.8,2471.049,13.29,0.015,161.6
2022-10-06T02:16:03,42.805,6.029,-0.022,-0.007,-0.024,101.0,100.0,100.0,13.3,1505.2,327.8,-0.8,1.8,2471.058,13.29,0.023,252.4
2022-10-06T02:19:03,42.805,6.029,-0.008,-0.016,-0.025,103.0,100.0,100.0,13.3,1505.2,328.2,-0.8,1.8,2471.062,13.29,0.017,206.6
2022-10-06T02:22:03,42.805,6.029,-0.02,-0.013,-0.024,100.0,101.0,101.0,13.4,1505.2,321.9,-0.7,1.8,2471.045,13.29,0.023,237.0
2022-10-06T02:25:03,42.805,6.029,-0.025,0.029,0.025,100.0,101.0,100.0,13.4,1505.2,323.2,-0.8,1.8,2471.054,13.29,0.038,319.2
2022-10-06T02:28:03,42.805,6.029,-0.001,0.031,0.001,99.0,101.0,100.0,13.4,1505.2,330.6,-0.8,1.8,2471.049,13.29,0.031,358.2
2022-10-06T02:31:03,42.805,6.029,-0.007,0.01,-0.001,99.0,101.0,101.0,13.3,1505.2,321.7,-0.8,1.8,2471.056,13.29,0.012,325.0
2022-10-06T02:34:03,42.805,6.029,-0.021,-0.007,0.003,100.0,102.0,99.0,13.4,1505.2,329.2,-0.8,1.8,2471.044,13.29,0.022,251.6
2022-10-06T02:37:03,42.805,6.029,-0.015,0.009,-0.009,102.0,101.0,99.0,13.4,1505.2,332.2,-0.7,1.8,2471.083,13.29,0.017,301.0
2022-10-06T02:40:03,42.805,6.029,-0.02,-0.004,-0.038,101.0,101.0,100.0,13.3,1505.2,330.2,-0.8,1.8,2471.07,13.29,0.02,258.7
2022-10-06T02:43:03,42.805,6.029,-0.024,-0.001,0.005,100.0,101.0,101.0,13.4,1505.2,323.2,-0.8,1.8,2471.043,13.29,0.024,267.6
2022-10-06T02:46:03,42.805,6.029,-0.04,0.02,-0.021,101.0,101.0,100.0,13.3,1505.2,328.2,-0.8,1.8,2471.054,13.29,0.044,296.6
2022-10-06T02:49:03,42.805,6.029,-0.009,0.003,0.014,102.0,99.0,100.0,13.4,1505.2,324.4,-0.8,1.8,2471.027,13.29,0.009,288.4
2022-10-06T02:52:03,42.805,6.029,-0.004,-0.01,-0.01,101.0,100.0,100.0,13.3,1505.2,318.3,-0.8,1.8,2471.004,13.29,0.01,201.8
2022-10-06T02:55:03,42.805,6.029,-0.004,0.006,0.018,100.0,100.0,101.0,13.3,1505.2,327.6,-0.7,1.8,2471.041,13.29,0.007,326.3
2022-10-06T02:58:03,42.805,6.029,-0.047,0.026,0.0,101.0,102.0,99.0,13.4,1505.2,325.9,-0.8,1.8,2471.059,13.29,0.053,298.9
2022-10-06T03:04:03,42.805,6.029,-0.007,-0.008,0.008,101.0,101.0,101.0,13.4,1505.2,324.7,-0.8,1.8,2471.053,13.29,0.01,221.2
2022-10-06T03:07:03,42.805,6.029,-0.051,0.025,0.0,102.0,101.0,100.0,13.3,1505.2,323.7,-0.8,1.8,2471.099,13.29,0.056,296.1
2022-10-06T03:10:03,42.805,6.029,-0.013,0.02,0.026,99.0,101.0,100.0,13.4,1505.2,329.6,-0.7,1.8,2471.108,13.29,0.023,327.0
2022-10-06T03:13:03,42.805,6.029,-0.006,0.016,-0.019,102.0,100.0,101.0,13.4,1505.2,329.4,-0.8,1.8,2471.124,13.29,0.017,339.4
2022-10-06T03:16:03,42.805,6.029,-0.014,0.005,0.002,101.0,100.0,100.0,13.4,1505.2,320.7,-0.8,1.8,2471.097,13.29,0.014,289.6
2022-10-06T03:19:03,42.805,6.029,-0.012,0.0,-0.018,102.0,103.0,100.0,13.4,1505.2,318.1,-0.8,1.8,2471.087,13.29,0.012,270.0
2022-10-06T03:22:03,42.805,6.029,-0.02,-0.025,-0.058,101.0,100.0,100.0,13.4,1505.2,331.1,-0.7,1.8,2471.066,13.29,0.032,218.7
2022-10-06T03:25:03,42.805,6.029,-0.038,-0.001,-0.009,101.0,101.0,100.0,13.4,1505.2,321.7,-0.8,1.8,2471.112,13.29,0.038,268.5
2022-10-06T03:28:03,42.805,6.029,-0.048,0.019,-0.003,101.0,100.0,101.0,13.3,1505.2,321.7,-0.7,1.8,2471.087,13.29,0.051,291.6
2022-10-06T03:31:03,42.805,6.029,-0.027,0.013,-0.023,102.0,101.0,100.0,13.4,1505.2,325.9,-0.7,1.8,2471.074,13.29,0.029,295.7
2022-10-06T03:34:03,42.805,6.029,-0.03,0.006,-0.019,101.0,100.0,100.0,13.3,1505.2,329.0,-0.8,1.8,2471.097,13.29,0.03,281.3
2022-10-06T03:37:03,42.805,6.029,-0.057,0.007,-0.041,103.0,102.0,100.0,13.4,1505.2,322.5,-0.7,1.8,2471.108,13.29,0.057,277.0
2022-10-06T03:40:03,42.805,6.029,-0.024,0.03,0.036,100.0,101.0,100.0,13.4,1505.2,332.8,-0.8,1.8,2471.07,13.29,0.038,321.3
2022-10-06T03:43:03,42.805,6.029,-0.031,0.006,-0.007,102.0,101.0,100.0,13.4,1505.2,318.8,-0.8,1.8,2471.082,13.29,0.031,281.0
2022-10-06T03:46:03,42.805,6.029,0.0,-0.007,-0.032,101.0,101.0,100.0,13.4,1505.2,319.9,-0.8,1.8,2471.095,13.29,0.007,180.0
2022-10-06T03:49:03,42.805,6.029,-0.026,0.023,0.018,101.0,102.0,100.0,13.4,1505.2,328.5,-0.8,1.8,2471.118,13.29,0.034,311.5
2022-10-06T03:52:03,42.805,6.029,-0.03,0.019,-0.01,102.0,101.0,101.0,13.4,1505.2,317.0,-0.7,1.8,2471.11,13.29,0.035,302.3
2022-10-06T03:55:03,42.805,6.029,0.0,0.006,0.007,101.0,101.0,101.0,13.4,1505.2,322.2,-0.7,1.8,2471.077,13.29,0.006,0.0
2022-10-06T03:58:03,42.805,6.029,-0.032,0.0,-0.011,101.0,99.0,102.0,13.4,1505.2,320.1,-0.8,1.8,2471.083,13.29,0.032,270.0
2022-10-06T04:04:03,42.805,6.029,-0.021,0.007,-0.001,101.0,100.0,100.0,13.4,1505.2,321.2,-0.8,1.8,2471.147,13.29,0.022,288.4
2022-10-06T04:07:03,42.805,6.029,-0.036,0.017,-0.016,101.0,100.0,100.0,13.3,1505.2,317.8,-0.8,1.8,2471.122,13.29,0.039,295.3
2022-10-06T04:10:03,42.805,6.029,-0.014,0.011,0.013,101.0,101.0,100.0,13.4,1505.2,330.0,-0.8,1.8,2471.115,13.29,0.017,308.2
2022-10-06T04:13:03,42.805,6.029,-0.017,0.009,-0.022,101.0,102.0,101.0,13.3,1505.2,321.5,-0.8,1.8,2471.116,13.29,0.019,297.9
2022-10-06T04:16:03,42.805,6.029,-0.002,0.0,0.007,100.0,101.0,100.0,13.4,1505.2,322.1,-0.8,1.8,2471.087,13.29,0.002,270.0
2022-10-06T04:19:03,42.805,6.029,-0.012,-0.032,-0.07,100.0,100.0,100.0,13.4,1505.2,325.4,-0.8,1.8,2471.071,13.29,0.034,200.6
2022-10-06T04:22:03,42.805,6.029,-0.041,0.019,-0.009,100.0,101.0,100.0,13.4,1505.2,320.7,-0.8,1.8,2471.073,13.29,0.045,294.9
2022-10-06T04:25:03,42.805,6.029,-0.022,0.01,-0.009,102.0,102.0,100.0,13.3,1505.2,331.2,-0.8,1.8,2471.122,13.29,0.024,294.4
2022-10-06T04:28:03,42.805,6.029,-0.007,0.015,0.013,101.0,101.0,100.0,13.4,1505.2,325.9,-0.7,1.8,2471.064,13.29,0.016,335.0
2022-10-06T04:31:03,42.805,6.029,-0.024,0.0,0.019,101.0,101.0,101.0,13.4,1505.2,319.4,-0.7,1.8,2471.094,13.29,0.024,270.0
2022-10-06T04:34:03,42.805,6.029,-0.015,-0.01,-0.009,101.0,101.0,100.0,13.4,1505.2,333.7,-0.8,1.9,2471.074,13.29,0.018,236.3
2022-10-06T04:37:03,42.805,6.029,-0.005,-0.011,-0.013,101.0,101.0,101.0,13.4,1505.2,329.0,-0.8,1.8,2471.097,13.29,0.012,204.4
2022-10-06T04:40:03,42.805,6.029,-0.012,0.008,-0.012,99.0,100.0,101.0,13.4,1505.2,328.6,-0.8,1.8,2471.047,13.29,0.014,303.7
2022-10-06T04:43:03,42.805,6.029,-0.003,-0.01,-0.029,101.0,101.0,100.0,13.4,1505.2,323.2,-0.7,1.8,2471.086,13.29,0.01,196.7
2022-10-06T04:46:03,42.805,6.029,-0.012,-0.008,-0.025,99.0,99.0,101.0,13.4,1505.2,323.2,-0.8,1.8,2471.052,13.29,0.014,236.3
2022-10-06T04:49:03,42.805,6.029,0.006,-0.005,0.0,102.0,101.0,101.0,13.4,1505.2,322.2,-0.8,1.8,2471.081,13.29,0.007,129.8
2022-10-06T04:52:03,42.805,6.029,-0.012,-0.008,-0.017,99.0,101.0,99.0,13.4,1505.2,322.3,-0.7,1.8,2471.054,13.29,0.014,236.3
2022-10-06T04:55:03,42.805,6.029,-0.01,-0.003,0.007,101.0,100.0,99.0,13.4,1505.2,317.9,-0.8,1.8,2471.064,13.29,0.01,253.3
2022-10-06T04:58:03,42.805,6.029,0.0,0.007,0.012,101.0,103.0,98.0,13.3,1505.2,323.9,-0.8,1.8,2471.1,13.29,0.007,0.0
2022-10-06T05:04:03,42.805,6.029,-0.016,0.013,-0.015,101.0,101.0,100.0,13.4,1505.2,333.4,-0.7,1.8,2471.167,13.29,0.02,309.1
2022-10-06T05:07:03,42.805,6.029,-0.004,0.013,0.0,101.0,100.0,100.0,13.4,1505.2,328.7,-0.8,1.8,2471.149,13.29,0.013,342.9
2022-10-06T05:10:03,42.805,6.029,-0.005,-0.005,-0.015,101.0,100.0,100.0,13.4,1505.2,328.4,-0.7,1.8,2471.152,13.29,0.007,225.0
2022-10-06T05:13:03,42.805,6.029,-0.013,-0.003,0.004,101.0,101.0,100.0,13.3,1505.2,319.0,-0.8,1.8,2471.113,13.29,0.013,257.0
2022-10-06T05:16:03,42.805,6.029,-0.011,-0.011,-0.009,99.0,101.0,100.0,13.3,1505.2,329.6,-0.8,1.8,2471.155,13.29,0.015,225.0
2022-10-06T05:19:03,42.805,6.029,-0.029,0.021,-0.007,101.0,101.0,99.0,13.3,1505.2,328.5,-0.8,1.9,2471.133,13.29,0.035,305.9
2022-10-06T05:22:03,42.805,6.029,-0.016,0.007,-0.006,99.0,101.0,100.0,13.4,1505.2,331.8,-0.8,1.8,2471.139,13.29,0.017,293.6
2022-10-06T05:25:03,42.805,6.029,-0.004,0.01,-0.02,100.0,101.0,100.0,13.4,1505.2,326.9,-0.8,1.9,2471.119,13.29,0.01,338.2
2022-10-06T05:28:03,42.805,6.029,-0.041,0.019,-0.004,101.0,101.0,99.0,13.4,1505.2,332.4,-0.8,1.8,2471.118,13.29,0.045,294.9
2022-10-06T05:31:03,42.805,6.029,-0.004,-0.001,0.008,100.0,102.0,100.0,13.4,1505.2,324.0,-0.8,1.8,2471.104,13.29,0.004,256.0
2022-10-06T05:34:03,42.805,6.029,-0.021,0.015,-0.002,101.0,101.0,100.0,13.3,1505.2,329.3,-0.8,1.9,2471.134,13.29,0.025,305.5
2022-10-06T05:37:03,42.805,6.029,-0.005,-0.004,-0.04,100.0,101.0,101.0,13.3,1505.2,326.3,-0.8,1.8,2471.087,13.29,0.006,231.3
2022-10-06T05:40:03,42.805,6.029,-0.019,0.012,-0.013,101.0,101.0,100.0,13.4,1505.2,329.3,-0.8,1.8,2471.095,13.29,0.022,302.3
2022-10-06T05:43:03,42.805,6.029,-0.002,-0.013,-0.042,101.0,102.0,100.0,13.3,1505.2,323.0,-0.8,1.9,2471.075,13.29,0.013,188.7
2022-10-06T05:46:03,42.805,6.029,-0.019,0.021,0.025,102.0,101.0,100.0,13.4,1505.2,331.8,-0.8,1.8,2471.058,13.29,0.028,317.9
2022-10-06T05:49:03,42.805,6.029,-0.005,-0.003,-0.038,102.0,100.0,100.0,13.4,1505.2,327.6,-0.8,1.8,2471.056,13.29,0.005,239.0
2022-10-06T05:52:03,42.805,6.029,-0.003,-0.009,0.005,101.0,101.0,101.0,13.4,1505.2,321.0,-0.8,1.8,2471.052,13.29,0.009,198.4
2022-10-06T05:55:03,42.805,6.029,-0.025,0.0,-0.027,100.0,101.0,101.0,13.4,1505.2,320.4,-0.8,1.8,2471.073,13.29,0.025,270.0
2022-10-06T05:58:03,42.805,6.029,-0.011,-0.001,-0.011,102.0,101.0,101.0,13.4,1505.2,321.1,-0.8,1.8,2471.08,13.29,0.011,264.8
2022-10-06T06:04:03,42.805,6.029,-0.019,0.008,0.005,101.0,101.0,100.0,13.3,1505.2,329.6,-0.8,1.8,2471.127,13.29,0.02,292.8
2022-10-06T06:07:03,42.805,6.029,0.02,0.006,0.005,100.0,101.0,100.0,13.3,1505.2,318.7,-0.8,1.8,2471.114,13.29,0.02,73.3
2022-10-06T06:10:03,42.805,6.029,-0.014,-0.014,-0.014,103.0,100.0,100.0,13.4,1505.2,334.0,-0.7,1.8,2471.101,13.29,0.019,225.0
2022-10-06T06:13:03,42.805,6.029,0.003,0.011,-0.01,100.0,102.0,100.0,13.4,1505.2,327.2,-0.8,1.8,2471.097,13.29,0.011,15.3
2022-10-06T06:16:03,42.805,6.029,-0.033,-0.009,-0.024,101.0,100.0,100.0,13.4,1505.2,322.3,-0.8,1.8,2471.11,13.29,0.034,254.7
2022-10-06T06:19:03,42.805,6.029,-0.005,-0.022,-0.028,100.0,101.0,100.0,13.4,1505.2,322.5,-0.8,1.8,2471.091,13.29,0.022,192.8
2022-10-06T06:22:03,42.805,6.029,-0.014,0.006,0.006,101.0,101.0,99.0,13.4,1505.2,316.7,-0.8,1.8,2471.05,13.29,0.015,293.2
2022-10-06T06:25:03,42.805,6.029,-0.011,0.007,0.0,100.0,101.0,100.0,13.4,1505.2,320.7,-0.7,1.8,2471.063,13.29,0.013,302.5
2022-10-06T06:28:03,42.805,6.029,0.014,0.003,0.042,101.0,101.0,100.0,13.4,1505.2,322.7,-0.7,1.8,2471.039,13.29,0.014,77.9
2022-10-06T06:31:03,42.805,6.029,-0.007,0.003,-0.001,102.0,101.0,99.0,13.4,1505.2,332.5,-0.7,1.8,2471.073,13.29,0.007,293.2
2022-10-06T06:34:03,42.805,6.029,-0.018,0.011,0.024,103.0,101.0,100.0,13.4,1505.2,319.9,-0.8,1.8,2471.038,13.29,0.021,301.4
2022-10-06T06:37:03,42.805,6.029,0.007,-0.018,-0.039,101.0,101.0,100.0,13.3,1505.2,322.7,-0.7,1.8,2471.067,13.29,0.019,158.8
2022-10-06T06:40:03,42.805,6.029,-0.021,-0.001,-0.024,102.0,101.0,100.0,13.4,1505.2,323.3,-0.8,1.8,2471.059,13.29,0.021,267.3
2022-10-06T06:43:03,42.805,6.029,0.008,0.005,-0.002,103.0,101.0,100.0,13.4,1505.2,333.7,-0.7,1.8,2471.055,13.29,0.009,58.0
2022-10-06T06:46:03,42.805,6.029,-0.021,0.008,-0.018,102.0,101.0,100.0,13.3,1505.2,322.7,-0.7,1.8,2471.081,13.29,0.022,290.9
2022-10-06T06:49:03,42.805,6.029,-0.012,0.009,-0.023,101.0,101.0,100.0,13.4,1505.2,320.7,-0.7,1.8,2471.037,13.29,0.015,306.9
2022-10-06T06:52:03,42.805,6.029,-0.028,0.012,-0.02,101.0,101.0,100.0,13.3,1505.2,324.3,-0.7,1.8,2471.064,13.29,0.03,293.2
2022-10-06T06:55:03,42.805,6.029,-0.021,-0.002,-0.038,100.0,101.0,101.0,13.4,1505.2,323.7,-0.8,1.8,2471.04,13.29,0.021,264.6
2022-10-06T06:58:03,42.805,6.029,-0.019,0.0,-0.015,102.0,101.0,99.0,13.3,1505.2,324.2,-0.8,1.8,2471.079,13.29,0.019,270.0
2022-10-06T07:04:03,42.805,6.029,-0.018,0.0,0.013,101.0,101.0,100.0,13.4,1505.2,321.6,-0.8,1.8,2471.125,13.29,0.018,270.0
2022-10-06T07:07:03,42.805,6.029,-0.007,0.009,-0.015,101.0,102.0,99.0,13.4,1505.2,321.1,-0.7,1.8,2471.095,13.29,0.011,322.1
2022-10-06T07:10:03,42.805,6.029,-0.002,0.022,0.011,100.0,101.0,100.0,13.4,1505.2,333.1,-0.7,1.8,2471.09,13.29,0.022,354.8
2022-10-06T07:13:03,42.805,6.029,-0.015,0.013,-0.017,101.0,101.0,100.0,13.4,1505.2,330.2,-0.8,1.8,2471.131,13.29,0.019,310.9
2022-10-06T07:16:03,42.805,6.029,-0.017,0.013,-0.008,99.0,102.0,99.0,13.3,1505.2,327.4,-0.7,1.8,2471.064,13.29,0.021,307.4
2022-10-06T07:19:03,42.805,6.029,-0.006,-0.013,-0.046,99.0,101.0,100.0,13.4,1505.2,327.8,-0.8,1.8,2471.078,13.29,0.014,204.8
2022-10-06T07:22:03,42.805,6.029,-0.034,0.004,0.0,100.0,101.0,100.0,13.4,1505.2,317.1,-0.7,1.8,2471.079,13.29,0.034,276.7
2022-10-06T07:25:03,42.805,6.029,-0.013,0.002,-0.027,103.0,102.0,100.0,13.3,1505.2,326.7,-0.7,1.8,2471.03,13.29,0.013,278.7
2022-10-06T07:28:03,42.805,6.029,-0.023,-0.001,-0.055,100.0,101.0,99.0,13.4,1505.2,327.4,-0.8,1.8,2471.071,13.29,0.023,267.5
2022-10-06T07:31:03,42.805,6.029,-0.013,0.0,-0.034,102.0,102.0,98.0,13.4,1505.2,319.4,-0.7,1.8,2471.084,13.29,0.013,270.0
2022-10-06T07:34:03,42.805,6.029,-0.016,0.0,-0.024,101.0,100.0,100.0,13.4,1505.2,328.8,-0.7,1.8,2471.016,13.29,0.016,270.0
2022-10-06T07:37:03,42.805,6.029,-0.009,0.019,-0.016,101.0,101.0,99.0,13.3,1505.2,327.2,-0.8,1.8,2471.012,13.29,0.021,334.7
2022-10-06T07:40:03,42.805,6.029,-0.026,-0.005,-0.013,101.0,100.0,100.0,13.4,1505.2,320.7,-0.7,1.8,2471.003,13.29,0.026,259.1
2022-10-06T07:43:03,42.805,6.029,-0.012,0.021,0.011,100.0,100.0,101.0,13.3,1505.2,317.9,-0.7,1.8,2471.045,13.29,0.024,330.3
2022-10-06T07:46:03,42.805,6.029,-0.025,0.003,-0.032,100.0,101.0,100.0,13.4,1505.2,319.5,-0.8,1.8,2471.028,13.29,0.025,276.8
2022-10-06T07:49:03,42.805,6.029,-0.047,0.007,0.005,101.0,100.0,100.0,13.3,1505.2,326.6,-0.7,1.8,2471.013,13.29,0.047,278.5
2022-10-06T07:52:03,42.805,6.029,-0.016,0.015,0.012,100.0,101.0,100.0,13.4,1505.2,328.8,-0.7,1.8,2471.043,13.29,0.021,313.1
2022-10-06T07:55:03,42.805,6.029,-0.021,0.001,-0.021,99.0,100.0,101.0,13.4,1505.2,324.2,-0.7,1.8,2471.02,13.29,0.021,272.7
2022-10-06T07:58:03,42.805,6.029,-0.016,0.005,-0.012,101.0,101.0,99.0,13.3,1505.2,328.4,-0.8,1.8,2471.048,13.29,0.016,287.4
2022-10-06T08:04:03,42.805,6.029,-0.035,-0.01,-0.067,100.0,100.0,100.0,13.3,1505.2,328.1,-0.8,1.8,2471.077,13.29,0.036,254.1
2022-10-06T08:07:03,42.805,6.029,-0.006,0.002,-0.002,101.0,100.0,100.0,13.4,1505.2,324.2,-0.7,1.8,2471.061,13.29,0.006,288.4
2022-10-06T08:10:03,42.805,6.029,-0.04,0.019,-0.007,101.0,101.0,100.0,13.4,1505.2,319.5,-0.8,1.8,2471.032,13.29,0.044,295.4
2022-10-06T08:13:03,42.805,6.029,0.012,0.0,0.01,101.0,102.0,100.0,13.3,1505.2,329.0,-0.8,1.8,2471.094,13.29,0.012,90.0
2022-10-06T08:16:03,42.805,6.029,-0.015,0.01,0.027,100.0,101.0,99.0,13.3,1505.2,322.0,-0.8,1.9,2471.03,13.29,0.018,303.7
2022-10-06T08:19:03,42.805,6.029,0.0,-0.014,-0.017,102.0,100.0,99.0,13.4,1505.2,320.7,-0.7,1.8,2471.036,13.29,0.014,180.0
2022-10-06T08:22:03,42.805,6.029,-0.008,0.01,-0.01,100.0,101.0,100.0,13.4,1505.2,328.1,-0.8,1.8,2471.004,13.29,0.012,321.3
2022-10-06T08:25:03,42.805,6.029,-0.004,-0.024,-0.042,102.0,100.0,99.0,13.3,1505.2,318.6,-0.7,1.8,2471.021,13.29,0.024,189.5
2022-10-06T08:28:03,42.805,6.029,-0.003,0.0,-0.004,100.0,100.0,100.0,13.4,1505.2,332.2,-0.8,1.8,2471.014,13.29,0.003,270.0
2022-10-06T08:31:03,42.805,6.029,0.003,-0.003,0.018,99.0,102.0,101.0,13.4,1505.2,327.4,-0.8,1.8,2471.069,13.29,0.004,135.0
2022-10-06T08:34:03,42.805,6.029,-0.019,0.029,0.002,100.0,101.0,100.0,13.3,1505.2,328.9,-0.8,1.8,2471.058,13.29,0.034,326.8
2022-10-06T08:37:03,42.805,6.029,-0.001,0.0,-0.013,101.0,100.0,100.0,13.4,1505.2,327.6,-0.7,1.8,2471.048,13.29,0.001,270.0
2022-10-06T08:40:03,42.805,6.029,0.0,0.012,-0.009,101.0,100.0,100.0,13.3,1505.2,320.6,-0.7,1.8,2471.013,13.29,0.012,0.0
2022-10-06T08:43:03,42.805,6.029,-0.025,0.0,-0.01,101.0,101.0,100.0,13.4,1505.2,322.5,-0.8,1.8,2470.994,13.29,0.025,270.0
2022-10-06T08:46:03,42.805,6.029,-0.006,-0.009,0.0,100.0,100.0,101.0,13.4,1505.2,321.9,-0.8,1.8,2470.98,13.29,0.01,213.7
2022-10-06T08:49:03,42.805,6.029,-0.002,0.01,0.019,102.0,101.0,100.0,13.4,1505.2,333.1,-0.8,1.8,2471.014,13.29,0.01,348.7
2022-10-06T08:52:03,42.805,6.029,-0.021,0.017,-0.004,100.0,100.0,100.0,13.4,1505.2,331.1,-0.7,1.8,2471.045,13.29,0.027,309.0
2022-10-06T08:55:03,42.805,6.029,-0.021,-0.007,-0.035,100.0,101.0,100.0,13.3,1505.2,320.9,-0.7,1.8,2471.011,13.29,0.022,251.6
2022-10-06T08:58:03,42.805,6.029,-0.017,0.002,-0.022,102.0,100.0,99.0,13.4,1505.2,319.9,-0.7,1.8,2471.015,13.29,0.017,276.7
2022-10-06T09:04:03,42.805,6.029,-0.01,0.014,-0.014,101.0,101.0,100.0,13.4,1505.2,324.6,-0.8,1.8,2471.038,13.29,0.017,324.5
2022-10-06T09:07:03,42.805,6.029,-0.03,0.019,-0.004,100.0,101.0,100.0,13.4,1505.2,322.5,-0.8,1.8,2471.031,13.29,0.035,302.3
2022-10-06T09:10:03,42.805,6.029,-0.018,0.013,0.006,102.0,101.0,99.0,13.4,1505.2,330.2,-0.7,1.8,2471.071,13.29,0.022,305.8
2022-10-06T09:13:03,42.805,6.029,-0.011,-0.003,0.0,103.0,100.0,100.0,13.4,1505.2,325.4,-0.8,1.8,2471.014,13.29,0.011,254.7
2022-10-06T09:16:03,42.805,6.029,0.013,-0.008,-0.014,102.0,100.0,100.0,13.4,1505.2,331.1,-0.7,1.8,2470.995,13.29,0.015,121.6
2022-10-06T09:19:03,42.805,6.029,-0.008,0.024,-0.006,100.0,100.0,101.0,13.4,1505.2,325.1,-0.8,1.8,2471.006,13.29,0.025,341.6
2022-10-06T09:22:03,42.805,6.029,-0.01,-0.002,0.0,101.0,101.0,100.0,13.4,1505.2,327.2,-0.8,1.9,2470.997,13.29,0.01,258.7
2022-10-06T09:25:03,42.805,6.029,-0.016,0.002,-0.006,100.0,101.0,100.0,13.3,1505.2,316.7,-0.7,1.8,2471.04,13.29,0.016,277.1
2022-10-06T09:28:03,42.805,6.029,0.001,0.0,-0.015,100.0,102.0,100.0,13.3,1505.2,323.0,-0.7,1.9,2470.99,13.29,0.001,90.0
2022-10-06T09:31:03,42.805,6.029,-0.026,-0.002,-0.029,101.0,101.0,100.0,13.4,1505.2,322.5,-0.8,1.8,2471.04,13.29,0.026,265.6
2022-10-06T09:34:03,42.805,6.029,-0.011,0.003,-0.026,102.0,102.0,99.0,13.3,1505.2,327.4,-0.8,1.8,2471.008,13.29,0.011,285.3
2022-10-06T09:37:03,42.805,6.029,0.007,0.014,0.007,101.0,101.0,100.0,13.4,1505.2,323.2,-0.8,1.8,2470.971,13.29,0.015,26.6
2022-10-06T09:40:03,42.805,6.029,-0.012,0.01,0.001,101.0,100.0,100.0,13.4,1505.2,331.8,-0.7,1.8,2471.02,13.29,0.015,309.8
2022-10-06T09:43:03,42.805,6.029,-0.051,0.018,-0.048,101.0,101.0,100.0,13.4,1505.2,321.0,-0.8,1.8,2470.986,13.29,0.054,289.4
2022-10-06T09:46:03,42.805,6.029,-0.021,0.005,0.001,103.0,101.0,100.0,13.3,1505.2,328.1,-0.8,1.8,2471.017,13.29,0.021,283.4
2022-10-06T09:49:03,42.805,6.029,0.011,0.007,-0.001,101.0,100.0,99.0,13.4,1505.2,320.1,-0.8,1.8,2470.988,13.29,0.013,57.5
2022-10-06T09:52:03,42.805,6.029,-0.006,0.014,0.001,101.0,101.0,100.0,13.4,1505.2,322.8,-0.7,1.8,2470.998,13.29,0.015,336.8
2022-10-06T09:55:03,42.805,6.029,-0.002,-0.003,-0.019,100.0,102.0,99.0,13.4,1505.2,317.5,-0.8,1.8,2471.015,13.29,0.003,213.7